{"data":{"norad_id":44625,"epoch":"2026-09-19T22:50:47.515776Z","epoch_age_seconds":69025,"freshness":"FRESH","line1":"1 44625U 19067B   26262.95193884 -.00000150  00000+0  00000+0 0  9994","line2":"2 44625   0.8071 267.9291 0004219 268.9429 320.8390  1.00272795 62490","mean_motion":1.00272795,"eccentricity":0.0004219,"inclination_deg":0.8071,"raan_deg":267.9291,"arg_perigee_deg":268.9429,"mean_anomaly_deg":320.839,"bstar":0,"rev_number":6249,"period_min":1436.0824389108,"perigee_km":35768.522642944,"apogee_km":35804.101004862,"semimajor_km":42164.448823903,"source":"CELESTRAK","updated_at":"2026-09-20T09:00:35.290105Z"}}